CZ-4C DEB, 44614

Orbit data source: Space-Track

CZ-4C DEB, 44614 is space debris in SSO originally from a launch on Tue, 14 Nov 2017 UTC launched from the Taiyaun Space Center, China (TSC). Debris objects in space refer to the collection of defunct objects orbiting the Earth. Examples of debris include non-operational satellites, rocket bodies, and fragments generated from explosions, collisions, or faulty payload assembly.

Loading next visibility...
CZ-4C DEB details
Identifier
44614, 2017-072E
Orbit
SSO
Last TLE update2 days ago
Origin
Flag of CNCASC (CN / PRC)
ManufacturerUnknown
MissionSpacecraft
Bus & MotorUnknown
MassUnknown
Launch date (UTC)
2017-11-14 (7 years ago)
Launch vehicleUnknown
Launch site
Taiyaun Space Center, China (TSC)
Object type
Payload
Rocket body
Debris
Shape & HBRUnknown
Radar Cross SectionSmall (<0.1 m²)

Expand to show TLE details & history

TLE from 2 days ago
0 CZ-4C DEB
1 44614U 17072E   24359.80702180  .00000663  00000-0  55188-3 0  9990
2 44614  98.7110 119.2190 0229947  46.4873 315.5140 13.80202775357015
Epoch: 2024-12-24T19:22Z
Definitive object data (Epoch: 2024-12-24T19:22:06.683Z)
Latitude-0.00006°
Longitude94.88134°
Altitude847.525 km
Speed7.489 km/s
True Right ascension07h 56m 52s
True Declination0° 00' 00"
Sunlit
Object was in full shadow at TLE epoch
Visualization TLE readout
Latitude-21.37125°
Longitude-86.96433°
Altitude1,128.856 km
Speed7.209 km/s
Apparent Right ascension21h 23m 25s
Apparent Declination-33° 02' 21"
Sunlit
Object is in daylight
Visualization observer readout
Local Sidereal Time11:42:06
Azimuth87.092° E
Elevation-61.478°
Doppler factor1
Orbital elements
Apogee altitude1,129.124 km
Perigee altitude791.631 km
Semi-major axis7,338.515 km
Eccentricity0.0229947
Inclination98.711°
RAAN119.219°
Arg. of periapsis46.4873°
True anomaly313.62928°
Mean anomaly315.514°
Eccentric anomaly314.57551°
Mean motion3.45248 °/min
BSTAR0.00055188
Orbital period104.27 mins
Loading maneuver chart data...
Loading historical data...
Loading historical data...
Loading historical data...
Loading historical data...
Loading historical data...
Loading historical data...
Loading historical data...
Other satellites on launch #72 in the year 2017 (2017-11-14 UTC)

CZ-4C DEB Visibility forecast

Observer location: undefined°, undefined

Span
Click to sort rows by Start time (UTC) header in descending order
Start Az.
Max El. time (UTC)
Max El. Az.
Max El.
End time (UTC)
End Az.
11 mins2024-12-26 20:39:36.709Z25.651° NE2024-12-26 20:44:36.709Z106.878° ESE39.64°2024-12-26 20:50:36.709Z178.416° S
7 mins2024-12-26 22:24:36.709Z328.541° NNW2024-12-26 22:27:36.709Z288.445° WNW21.329°2024-12-26 22:31:36.709Z247.579° W
4 mins2024-12-27 06:42:36.709Z81.307° E2024-12-27 06:44:36.709Z55.578° ENE14.238°2024-12-27 06:46:36.709Z31.685° NE
9 mins2024-12-27 08:22:36.709Z177.662° S2024-12-27 08:26:36.709Z251.606° W42.444°2024-12-27 08:31:36.709Z340.359° N
|